Location: Écuvilly
(49.6505°N, 2.9206°E)
Time: 18:12:11
(UTC+00:00)

Cosmos 1140 Rocket - Pass Details

Date: 17 November 2025
Orbit: 740 x 761 km, 74.1° (Epoch: 10 December)

Event Time Altitude Azimuth Distance (km) Brightness Sun altitude
Rises 17:34:11 0° 216° (SW) 3,198 7.5 -14.6°
Reaches altitude 10° 17:36:36 10° 221° (SW) 2,274 6.8 -15.0°
Maximum altitude 17:41:38 54° 299° (WNW) 916 4.2 -15.8°
Drops below altitude 10° 17:46:42 10° 16° (NNE) 2,276 5.7 -16.6°
Enters shadow 17:47:49 - 19° (NNE) 2,701 6.1 -16.8°
